Change the Weather History Date:

Friday, January 31, 2014

  Actual Average (KARG) Record (KARG)
Temperature  
Mean Temperature 34 °F -  
Max Temperature 41 °F 45 °F 69 °F (2002)
Min Temperature 28 °F 30 °F 15 °F (2004)
Degree Days  
Heating Degree Days 30    
Moisture  
Dew Point 29 °F    
Average Humidity 79    
Maximum Humidity 100    
Minimum Humidity 44    
Precipitation  
Precipitation 0.03 in - - ()
Sea Level Pressure  
Sea Level Pressure 30.01 in    
Wind  
Wind Speed 6 mph (ESE)    
Max Wind Speed 15 mph    
Max Gust Speed -    
Visibility 6 miles    
Events Rain    
Averages and records for this station are not official NWS values.
T = Trace of Precipitation, MM = Missing Value Source: NWS Daily Summary

Daily Weather History Graph

Daily Weather History Graph

Search for Another Location

Airport or City:

Trip Planner

Search our weather history database for the weather conditions in past years. The results will help you decide how hot, cold, wet, or windy it might be!

Date:

Astronomy

Jan. 31, 2014 Rise Set
Actual Time 7:04 AM CST 5:27 PM CST
Civil Twilight 6:37 AM CST 5:54 PM CST
Nautical Twilight 6:06 AM CST 6:25 PM CST
Astronomical Twilight 5:36 AM CST 6:56 PM CST
Moon 7:17 AM CST (1/31) 6:48 PM CST (1/31)
Length of Visible Light 11h 17m
Length of Day
10h 23m
New Moon, 1% of the Moon is Illuminated
Jan 31
New Moon
Feb 6
First Quarter
Feb 14
Full
Feb 22
Last Quarter
Mar 1
New

Hourly Weather History & Observations

Time (CST) Temp. Windchill Dew Point Humidity Pressure Visibility Wind Dir Wind Speed Gust Speed Precip Events Conditions
12:15 AM 33.8 °F 26.4 °F 14.0 °F 44% 30.02 in 10.0 mi South 9.2 mph - N/A   Clear
12:35 AM 32.0 °F 25.6 °F 14.0 °F 48% 30.01 in 10.0 mi SSW 6.9 mph - N/A   Clear
12:55 AM 32.0 °F 26.4 °F 14.0 °F 48% 30.02 in 10.0 mi SSW 5.8 mph - N/A   Clear
1:15 AM 30.2 °F 23.4 °F 15.8 °F 55% 30.02 in 10.0 mi SSW 6.9 mph - N/A   Clear
1:35 AM 32.0 °F 25.6 °F 15.8 °F 51% 30.02 in 10.0 mi SSW 6.9 mph - N/A   Clear
1:55 AM 32.0 °F 24.8 °F 15.8 °F 51% 30.03 in 10.0 mi SSW 8.1 mph - N/A   Clear
2:15 AM 30.2 °F 22.6 °F 15.8 °F 55% 30.03 in 10.0 mi SSW 8.1 mph - N/A   Clear
2:35 AM 32.0 °F 26.4 °F 17.6 °F 55% 30.03 in 10.0 mi SSW 5.8 mph - N/A   Clear
2:55 AM 32.0 °F 26.4 °F 15.8 °F 51% 30.04 in 10.0 mi SSW 5.8 mph - N/A   Clear
3:15 AM 28.4 °F 23.3 °F 15.8 °F 59% 30.04 in 10.0 mi South 4.6 mph - N/A   Clear
3:35 AM 30.2 °F 26.7 °F 15.8 °F 55% 30.03 in 10.0 mi South 3.5 mph - N/A   Clear
3:55 AM 28.4 °F 23.3 °F 15.8 °F 59% 30.03 in 10.0 mi SSE 4.6 mph - N/A   Scattered Clouds
4:15 AM 30.2 °F 25.4 °F 19.4 °F 64% 30.03 in 10.0 mi SSE 4.6 mph - N/A   Overcast
4:35 AM 32.0 °F 27.5 °F 21.2 °F 64% 30.03 in 10.0 mi SSE 4.6 mph - N/A   Overcast
4:55 AM 32.0 °F 27.5 °F 23.0 °F 69% 30.03 in 10.0 mi SE 4.6 mph - N/A   Overcast
5:15 AM 32.0 °F 28.7 °F 23.0 °F 69% 30.03 in 10.0 mi ESE 3.5 mph - N/A   Overcast
5:35 AM 32.0 °F 27.5 °F 23.0 °F 69% 30.04 in 10.0 mi ESE 4.6 mph - N/A   Overcast
5:55 AM 32.0 °F 26.4 °F 23.0 °F 69% 30.04 in 10.0 mi ESE 5.8 mph - N/A   Overcast
6:15 AM 32.0 °F 26.4 °F 23.0 °F 69% 30.04 in 10.0 mi ESE 5.8 mph - N/A   Overcast
6:35 AM 32.0 °F 26.4 °F 24.8 °F 75% 30.04 in 10.0 mi ESE 5.8 mph - N/A   Overcast
6:55 AM 32.0 °F 26.4 °F 24.8 °F 75% 30.05 in 10.0 mi SE 5.8 mph - N/A   Overcast
7:15 AM 33.8 °F 29.6 °F 23.0 °F 65% 30.05 in 10.0 mi SE 4.6 mph - N/A   Overcast
7:35 AM 35.6 °F 29.9 °F 23.0 °F 60% 30.04 in 10.0 mi ESE 6.9 mph - N/A   Overcast
7:55 AM 35.6 °F 30.7 °F 23.0 °F 60% 30.05 in 10.0 mi ESE 5.8 mph - N/A   Scattered Clouds
8:15 AM 37.4 °F 32.1 °F 21.2 °F 52% 30.05 in 10.0 mi ESE 6.9 mph - N/A   Clear
8:35 AM 37.4 °F 33.8 °F 19.4 °F 48% 30.07 in 10.0 mi SE 4.6 mph - N/A   Mostly Cloudy
8:55 AM 37.4 °F 33.8 °F 19.4 °F 48% 30.07 in 10.0 mi ESE 4.6 mph - N/A   Scattered Clouds
9:15 AM 37.4 °F 33.8 °F 21.2 °F 52% 30.07 in 10.0 mi ESE 4.6 mph - N/A   Mostly Cloudy
9:35 AM 37.4 °F 32.1 °F 21.2 °F 52% 30.07 in 10.0 mi ESE 6.9 mph - N/A   Overcast
9:55 AM 39.2 °F 35.9 °F 21.2 °F 49% 30.09 in 10.0 mi SE 4.6 mph - N/A   Overcast
10:15 AM 39.2 °F 35.0 °F 21.2 °F 49% 30.08 in 10.0 mi ESE 5.8 mph - N/A   Overcast
10:35 AM 39.2 °F 33.6 °F 21.2 °F 49% 30.08 in 10.0 mi SE 8.1 mph - N/A   Overcast
10:55 AM 39.2 °F 33.6 °F 23.0 °F 52% 30.06 in 10.0 mi SE 8.1 mph - N/A   Overcast
11:15 AM 41.0 °F 33.1 °F 26.6 °F 57% 30.06 in 10.0 mi SSE 15.0 mph - N/A   Overcast
11:35 AM 37.4 °F 30.3 °F 32.0 °F 81% 30.06 in 3.0 mi SSE 10.4 mph - N/A   Haze
11:55 AM 37.4 °F 30.3 °F 33.8 °F 87% 30.05 in 1.2 mi SSE 10.4 mph - N/A Rain Light Rain
12:15 PM 37.4 °F 31.4 °F 35.6 °F 93% 30.04 in 4.0 mi SE 8.1 mph - N/A   Overcast
12:35 PM 37.4 °F 31.4 °F 35.6 °F 93% 30.03 in 2.5 mi SE 8.1 mph - N/A   Mostly Cloudy
12:55 PM 37.4 °F 32.8 °F 37.4 °F 100% 30.02 in 1.2 mi SE 5.8 mph - N/A   Scattered Clouds
1:15 PM 37.4 °F 32.8 °F 37.4 °F 100% 30.00 in 1.2 mi SE 5.8 mph - N/A   Scattered Clouds
1:35 PM 37.4 °F 33.8 °F 37.4 °F 100% 30.00 in 2.5 mi ESE 4.6 mph - N/A   Clear
1:55 PM 37.4 °F 32.8 °F 37.4 °F 100% 29.99 in 1.5 mi ESE 5.8 mph - N/A Rain Light Rain
2:15 PM 37.4 °F 32.8 °F 37.4 °F 100% 29.99 in 0.8 mi East 5.8 mph - N/A Rain Light Rain
2:35 PM 37.4 °F 33.8 °F 37.4 °F 100% 29.99 in 1.0 mi East 4.6 mph - N/A Rain Light Rain
2:55 PM 39.2 °F 35.0 °F 39.2 °F 100% 29.99 in 0.8 mi East 5.8 mph - 0.01 in Rain Light Rain
3:15 PM 37.4 °F 33.8 °F 37.4 °F 100% 29.98 in 0.8 mi ENE 4.6 mph - N/A Rain Light Rain
3:35 PM 37.4 °F 32.8 °F 37.4 °F 100% 29.98 in 0.8 mi East 5.8 mph - 0.01 in Rain Light Rain
3:55 PM 37.4 °F 33.8 °F 37.4 °F 100% 29.99 in 0.8 mi East 4.6 mph - 0.01 in   Mist
4:15 PM 37.4 °F 32.1 °F 37.4 °F 100% 29.99 in 0.5 mi NE 6.9 mph - N/A Rain Light Rain
4:35 PM 37.4 °F 32.8 °F 37.4 °F 100% 29.99 in 0.5 mi NE 5.8 mph - 0.01 in Rain Light Rain
4:55 PM 37.4 °F 32.8 °F 37.4 °F 100% 30.00 in 0.5 mi NE 5.8 mph - 0.01 in Rain Light Rain
5:15 PM 37.4 °F 32.8 °F 37.4 °F 100% 30.00 in 0.5 mi ENE 5.8 mph - N/A Rain Light Rain
5:35 PM 37.4 °F 32.8 °F 37.4 °F 100% 29.99 in 0.8 mi NE 5.8 mph - N/A Rain Light Rain
5:55 PM 37.4 °F 32.1 °F 37.4 °F 100% 29.99 in 1.2 mi ENE 6.9 mph - N/A Rain Light Rain
6:15 PM 37.4 °F 32.8 °F 37.4 °F 100% 29.99 in 1.2 mi ENE 5.8 mph - N/A   Scattered Clouds
6:35 PM 37.4 °F 32.8 °F 37.4 °F 100% 29.99 in 1.5 mi East 5.8 mph - N/A   Mostly Cloudy
6:55 PM 37.4 °F 33.8 °F 37.4 °F 100% 29.99 in 1.8 mi NE 4.6 mph - N/A   Mostly Cloudy
7:15 PM 35.6 °F 29.9 °F 35.6 °F 100% 29.99 in 1.2 mi NE 6.9 mph - N/A   Scattered Clouds
7:35 PM 35.6 °F 32.8 °F 35.6 °F 100% 29.99 in 1.2 mi ENE 3.5 mph - N/A   Overcast
7:55 PM 35.6 °F 30.7 °F 35.6 °F 100% 29.99 in 1.5 mi ENE 5.8 mph - N/A   Overcast
8:15 PM 35.6 °F 31.7 °F 35.6 °F 100% 29.98 in 1.5 mi ENE 4.6 mph - N/A   Overcast
8:35 PM 35.6 °F 29.9 °F 35.6 °F 100% 29.98 in 1.8 mi NNE 6.9 mph - N/A   Overcast
8:55 PM 35.6 °F 29.2 °F 35.6 °F 100% 29.98 in 1.5 mi NNE 8.1 mph - N/A   Overcast
9:15 PM 35.6 °F 30.7 °F 35.6 °F 100% 29.98 in 1.8 mi NE 5.8 mph - N/A   Overcast
9:35 PM 35.6 °F 29.9 °F 35.6 °F 100% 29.97 in 1.8 mi NNE 6.9 mph - N/A   Overcast
9:55 PM 35.6 °F 30.7 °F 35.6 °F 100% 29.96 in 1.2 mi NE 5.8 mph - N/A   Overcast
10:15 PM 35.6 °F 31.7 °F 35.6 °F 100% 29.96 in 1.2 mi NNE 4.6 mph - N/A   Overcast
10:35 PM 35.6 °F 31.7 °F 35.6 °F 100% 29.96 in 1.5 mi NNE 4.6 mph - N/A   Overcast
10:55 PM 35.6 °F 31.7 °F 35.6 °F 100% 29.96 in 1.5 mi North 4.6 mph - N/A   Overcast
11:15 PM 35.6 °F 29.9 °F 35.6 °F 100% 29.95 in 1.8 mi NE 6.9 mph - N/A   Overcast
11:35 PM 35.6 °F 30.7 °F 35.6 °F 100% 29.95 in 1.8 mi NE 5.8 mph - N/A   Overcast
11:55 PM 35.6 °F 30.7 °F 35.6 °F 100% 29.95 in 1.8 mi NE 5.8 mph - N/A   Overcast